Location: Chakepay
(13.3931°S, 72.1925°W)
Time: 04:20:43
(UTC+00:00)

Cosmos 1076 Rocket - Pass Details

Date: 15 November 2019
Orbit: 588 x 614 km, 82.5° (Epoch: 06 December)

Event Time Altitude Azimuth Distance (km) Brightness Sun altitude
Rises 08:33:13 0° 177° (S) 2,887 7.4 -22.9°
Reaches altitude 10° 08:35:30 10° 172° (S) 1,980 6.6 -22.4°
Maximum altitude 08:39:47 53° 95° (E) 753 4.3 -21.4°
Drops below altitude 10° 08:44:02 10° 18° (NNE) 1,964 6.0 -20.5°
Sets 08:46:17 0° 13° (NNE) 2,862 6.8 -20.0°
